User: anonymous   Login
Location: Unspecified
(0.0000°N, 0.0000°E)
Time: 14:49:25
(UTC+00:00)
Language:

APRIZESAT 9 - Orbit

View from above orbital plane
View from above orbital plane
View from above satellite
View from above satellite

Ground track
Ground track

The orbit data is extracted from the following two-line orbital elements,

1 40018U 14033J   17206.21069636 +.00000036 +00000-0 +13944-4 0  9997
2 40018 097.8388 082.0728 0071327 187.7068 172.3049 14.69810783166064
Epoch (UTC): 25 July 2017 05:03:24
Eccentricity: 0.0071327
inclination: 97.8388°
perigee height: 611 km
apogee height: 712 km
right ascension of ascending node: 82.0728°
argument of perigee: 187.7068°
revolutions per day: 14.69810783
mean anomaly at epoch: 172.3049°
orbit number at epoch: 16606

The dashed part of the orbit path shows where the satellite is in the earth's shadow,  

DLR